軌道要素
Epoch 2021 July 5.0 TT = JDT 2459400.5
T 2021 July 11.15102 TT Rudenko
q 2.0547232 (2000.0) P Q
z +0.0032102 Peri. 150.38278 -0.53887716 +0.70302525
+/-0.0000037 Node 83.04824 -0.83513851 -0.37375807
e 0.9934039 Incl. 27.87300 -0.11025003 -0.60502926
From 136 observations 2019 Dec. 11-2020 Nov. 15, mean residual 0".4.
|